Location: Gold Fund Mine
(38.3819°N, 119.0996°W)
Time: 23:40:14
(UTC+00:00)

FENGYUN 3A - Pass Details

Date: 18 September 2020
Orbit: 824 x 836 km, 98.4° (Epoch: 20 October)

Event Time Altitude Azimuth Distance (km) Brightness Sun altitude
Rises 13:05:23 0° 7° (N) 3,370 7.0 -7.8°
Reaches altitude 10° 13:07:48 10° 2° (N) 2,435 6.2 -7.3°
Maximum altitude 13:12:59 51° 288° (WNW) 1,040 3.9 -6.3°
Drops below altitude 10° 13:18:10 10° 214° (SW) 2,427 5.7 -5.3°
Sets 13:20:34 0° 209° (SSW) 3,358 6.5 -4.9°
